timestamp,wind_dir_avg,wind_spd_avg,wind_spd_max_dir,wind_spd_gust,battery_voltage,lat,long
2021-12-04 00:14:01+00:00,229.0,14.73,222.0,18.21,12.41,47.59359,-54.27349
2021-12-04 00:24:01+00:00,236.0,14.49,238.0,15.72,12.41,47.59359,-54.27349
2021-12-04 00:34:01+00:00,231.0,15.25,220.0,17.43,12.41,47.59359,-54.27349
2021-12-04 00:44:01+00:00,242.0,14.13,242.0,15.86,12.41,47.59359,-54.27349
2021-12-04 00:54:01+00:00,235.0,14.46,235.0,15.97,12.41,47.59359,-54.27349
2021-12-04 01:04:01+00:00,235.0,14.44,236.0,16.67,12.41,47.59359,-54.27349
2021-12-04 01:14:01+00:00,235.0,15.06,229.0,16.76,12.41,47.59359,-54.27349
2021-12-04 01:24:01+00:00,235.0,14.67,240.0,17.51,12.41,47.59359,-54.27349
2021-12-04 01:34:01+00:00,231.0,15.57,230.0,18.99,12.41,47.59359,-54.27349
2021-12-04 01:44:01+00:00,231.0,15.53,233.0,19.66,12.41,47.59359,-54.27349
2021-12-04 01:54:01+00:00,231.0,16.22,240.0,22.42,12.41,47.59359,-54.27349
2021-12-04 02:04:01+00:00,233.0,15.68,237.0,19.21,12.41,47.59359,-54.27349
2021-12-04 02:14:01+00:00,240.0,14.91,246.0,16.59,12.41,47.59359,-54.27349
2021-12-04 02:24:01+00:00,238.0,14.93,242.0,17.32,12.41,47.59359,-54.27349
2021-12-04 02:34:01+00:00,237.0,14.55,235.0,16.82,12.41,47.59359,-54.27349
2021-12-04 02:44:01+00:00,237.0,14.74,241.0,17.02,12.41,47.59359,-54.27349
2021-12-04 02:54:01+00:00,248.0,13.87,250.0,15.45,12.41,47.59359,-54.27349
2021-12-04 03:04:01+00:00,238.0,14.41,238.0,16.18,12.41,47.59359,-54.27349
2021-12-04 03:14:00+00:00,240.0,15.03,238.0,17.83,12.41,47.59359,-54.27349
2021-12-04 03:24:00+00:00,240.0,14.48,242.0,18.5,12.41,47.59359,-54.27349
2021-12-04 03:34:00+00:00,238.0,15.63,239.0,18.39,12.41,47.59359,-54.27349
2021-12-04 03:44:00+00:00,246.0,15.21,243.0,16.87,12.41,47.59359,-54.27349
2021-12-04 03:54:00+00:00,237.0,15.31,231.0,19.84,12.41,47.59359,-54.27349
2021-12-04 04:04:00+00:00,241.0,13.99,240.0,15.96,12.41,47.59359,-54.27349
2021-12-04 04:14:01+00:00,240.0,15.15,246.0,16.69,12.33,47.59359,-54.27349
2021-12-04 04:24:01+00:00,238.0,13.9,239.0,16.61,12.33,47.59359,-54.27349
2021-12-04 04:34:01+00:00,241.0,14.79,240.0,16.41,12.33,47.59359,-54.27349
2021-12-04 04:44:01+00:00,244.0,14.94,244.0,16.63,12.33,47.59359,-54.27349
2021-12-04 04:54:01+00:00,247.0,11.73,251.0,13.88,12.33,47.59359,-54.27349
2021-12-04 05:04:01+00:00,258.0,12.69,255.0,14.32,12.33,47.59359,-54.27349
2021-12-04 05:14:01+00:00,252.0,13.37,250.0,15.42,12.33,47.59359,-54.27349
2021-12-04 05:24:01+00:00,265.0,12.16,262.0,13.96,12.33,47.59359,-54.27349
2021-12-04 05:34:01+00:00,259.0,13.39,263.0,14.84,12.33,47.59359,-54.27349
2021-12-04 05:44:01+00:00,259.0,12.85,260.0,14.66,12.33,47.59359,-54.27349
2021-12-04 05:54:01+00:00,253.0,12.37,255.0,15.15,12.33,47.59359,-54.27349
2021-12-04 06:04:01+00:00,256.0,12.37,256.0,14.92,12.33,47.59359,-54.27349
2021-12-04 06:14:00+00:00,251.0,15.06,252.0,16.94,12.33,47.59359,-54.27349
2021-12-04 06:24:00+00:00,259.0,12.18,256.0,14.23,12.33,47.59359,-54.27349
2021-12-04 06:34:00+00:00,257.0,10.99,260.0,12.93,12.33,47.59359,-54.27349
2021-12-04 06:44:00+00:00,260.0,12.95,264.0,15.0,12.33,47.59359,-54.27349
2021-12-04 06:54:00+00:00,265.0,11.73,264.0,13.62,12.33,47.59359,-54.27349
2021-12-04 07:04:00+00:00,261.0,11.88,269.0,14.22,12.33,47.59359,-54.27349
2021-12-04 07:14:01+00:00,256.0,10.74,257.0,12.12,12.33,47.59359,-54.27349
2021-12-04 07:24:01+00:00,264.0,12.52,270.0,15.03,12.33,47.59359,-54.27349
2021-12-04 07:34:01+00:00,258.0,11.4,258.0,14.05,12.33,47.59359,-54.27349
2021-12-04 07:44:01+00:00,262.0,13.39,262.0,15.59,12.33,47.59359,-54.27349
2021-12-04 07:54:01+00:00,263.0,12.79,254.0,15.16,12.33,47.59359,-54.27349
2021-12-04 08:04:01+00:00,260.0,11.83,265.0,13.55,12.33,47.59359,-54.27349
2021-12-04 08:14:00+00:00,263.0,12.74,263.0,17.15,12.33,47.59359,-54.27349
2021-12-04 08:24:00+00:00,258.0,10.91,247.0,13.0,12.33,47.59359,-54.27349
2021-12-04 08:34:00+00:00,253.0,13.13,259.0,19.32,12.33,47.59359,-54.27349
2021-12-04 08:44:00+00:00,256.0,15.2,252.0,17.86,12.33,47.59359,-54.27349
2021-12-04 08:54:00+00:00,266.0,16.28,272.0,17.84,12.33,47.59359,-54.27349
2021-12-04 09:04:00+00:00,267.0,15.84,269.0,18.21,12.33,47.59359,-54.27349
2021-12-04 09:14:00+00:00,258.0,15.95,258.0,18.58,12.33,47.59359,-54.27349
2021-12-04 09:24:00+00:00,264.0,12.27,260.0,17.38,12.33,47.59359,-54.27349
2021-12-04 09:34:00+00:00,261.0,15.13,259.0,18.1,12.33,47.59359,-54.27349
2021-12-04 09:44:00+00:00,261.0,15.87,266.0,18.5,12.33,47.59359,-54.27349
2021-12-04 09:54:00+00:00,265.0,16.81,269.0,18.57,12.33,47.59359,-54.27349
2021-12-04 10:04:00+00:00,261.0,15.98,266.0,18.76,12.33,47.59359,-54.27349
2021-12-04 10:14:00+00:00,257.0,16.96,248.0,19.58,12.25,47.59359,-54.27349
2021-12-04 10:24:00+00:00,251.0,13.89,255.0,18.21,12.25,47.59359,-54.27349
2021-12-04 10:34:00+00:00,243.0,13.26,250.0,18.04,12.25,47.59359,-54.27349
2021-12-04 10:44:00+00:00,248.0,15.03,250.0,18.42,12.25,47.59359,-54.27349
2021-12-04 10:54:00+00:00,248.0,12.41,258.0,17.58,12.25,47.59359,-54.27349
2021-12-04 11:04:00+00:00,264.0,16.44,258.0,18.33,12.25,47.59359,-54.27349
2021-12-04 11:14:01+00:00,258.0,11.43,266.0,15.75,12.25,47.59359,-54.27349
2021-12-04 11:24:01+00:00,250.0,11.79,259.0,14.93,12.25,47.59359,-54.27349
2021-12-04 11:34:01+00:00,260.0,11.13,263.0,16.83,12.25,47.59359,-54.27349
2021-12-04 11:44:01+00:00,260.0,9.27,259.0,10.78,12.25,47.59359,-54.27349
2021-12-04 11:54:01+00:00,274.0,9.61,284.0,13.46,12.25,47.59359,-54.27349
2021-12-04 12:04:01+00:00,283.0,11.2,280.0,13.25,12.25,47.59359,-54.27349
2021-12-04 12:14:00+00:00,282.0,13.73,284.0,18.34,13.13,47.59359,-54.27349
2021-12-04 12:24:00+00:00,292.0,13.58,292.0,18.3,13.13,47.59359,-54.27349
2021-12-04 12:34:00+00:00,290.0,15.56,284.0,19.56,13.13,47.59359,-54.27349
2021-12-04 12:44:00+00:00,288.0,12.6,279.0,17.85,13.13,47.59359,-54.27349
2021-12-04 12:54:00+00:00,288.0,16.48,290.0,19.28,13.13,47.59359,-54.27349
2021-12-04 13:04:00+00:00,290.0,17.2,295.0,19.97,13.13,47.59359,-54.27349
2021-12-04 13:14:01+00:00,281.0,16.15,288.0,18.89,13.76,47.59359,-54.27349
2021-12-04 13:24:01+00:00,284.0,16.33,284.0,18.95,13.76,47.59359,-54.27349
2021-12-04 13:34:01+00:00,275.0,16.17,286.0,18.88,13.76,47.59359,-54.27349
2021-12-04 13:44:01+00:00,278.0,16.5,284.0,18.58,13.76,47.59359,-54.27349
2021-12-04 13:54:01+00:00,279.0,17.77,273.0,20.96,13.76,47.59359,-54.27349
2021-12-04 14:04:01+00:00,280.0,16.54,278.0,18.41,13.76,47.59359,-54.27349
2021-12-04 14:14:00+00:00,278.0,17.9,278.0,20.87,13.53,47.59359,-54.27349
2021-12-04 14:24:00+00:00,283.0,16.23,289.0,18.55,13.53,47.59359,-54.27349
2021-12-04 14:34:00+00:00,289.0,17.15,286.0,21.69,13.53,47.59359,-54.27349
2021-12-04 14:44:00+00:00,278.0,12.18,278.0,14.67,13.53,47.59359,-54.27349
2021-12-04 14:54:00+00:00,276.0,17.05,272.0,19.8,13.53,47.59359,-54.27349
2021-12-04 15:04:00+00:00,276.0,17.01,276.0,19.21,13.53,47.59359,-54.27349
2021-12-04 15:14:01+00:00,275.0,13.91,277.0,17.53,13.76,47.59359,-54.27349
2021-12-04 15:24:01+00:00,286.0,13.11,283.0,17.68,13.76,47.59359,-54.27349
2021-12-04 15:34:01+00:00,296.0,11.75,290.0,14.99,13.76,47.59359,-54.27349
2021-12-04 15:44:01+00:00,299.0,11.95,293.0,16.14,13.76,47.59359,-54.27349
2021-12-04 15:54:01+00:00,292.0,14.3,292.0,18.07,13.76,47.59359,-54.27349
2021-12-04 16:04:01+00:00,295.0,12.83,288.0,15.82,13.76,47.59359,-54.27349
2021-12-04 16:14:01+00:00,296.0,12.53,301.0,16.03,14.32,47.59359,-54.27349
2021-12-04 16:24:01+00:00,278.0,17.07,287.0,19.39,14.32,47.59359,-54.27349
2021-12-04 16:34:01+00:00,274.0,16.54,278.0,18.4,14.32,47.59359,-54.27349
2021-12-04 16:44:01+00:00,270.0,16.31,273.0,18.09,14.32,47.59359,-54.27349
2021-12-04 16:54:01+00:00,274.0,16.56,273.0,18.08,14.32,47.59359,-54.27349
2021-12-04 17:04:01+00:00,283.0,12.43,289.0,15.73,14.32,47.59359,-54.27349
2021-12-04 17:14:00+00:00,283.0,15.83,291.0,18.72,13.68,47.59359,-54.27349
2021-12-04 17:24:00+00:00,295.0,17.52,287.0,20.02,13.68,47.59359,-54.27349
2021-12-04 17:34:00+00:00,287.0,15.68,290.0,18.74,13.68,47.59359,-54.27349
2021-12-04 17:44:00+00:00,287.0,15.96,288.0,18.33,13.68,47.59359,-54.27349
2021-12-04 17:54:00+00:00,287.0,16.72,293.0,20.67,13.68,47.59359,-54.27349
2021-12-04 18:04:00+00:00,286.0,13.2,289.0,17.93,13.68,47.59359,-54.27349
2021-12-04 18:14:01+00:00,287.0,16.64,292.0,19.09,13.76,47.59359,-54.27349
2021-12-04 18:24:01+00:00,285.0,12.61,289.0,17.62,13.76,47.59359,-54.27349
2021-12-04 18:34:01+00:00,272.0,16.08,276.0,18.31,13.76,47.59359,-54.27349
2021-12-04 18:44:01+00:00,284.0,16.69,299.0,19.42,13.76,47.59359,-54.27349
2021-12-04 18:54:01+00:00,295.0,12.73,286.0,17.55,13.76,47.59359,-54.27349
2021-12-04 19:04:01+00:00,275.0,9.5,274.0,11.2,13.76,47.59359,-54.27349
2021-12-04 19:14:01+00:00,291.0,9.05,291.0,11.3,13.29,47.59359,-54.27349
2021-12-04 19:24:01+00:00,289.0,12.37,281.0,17.7,13.29,47.59359,-54.27349
2021-12-04 19:34:01+00:00,288.0,17.1,292.0,19.23,13.29,47.59359,-54.27349
2021-12-04 19:44:01+00:00,283.0,14.51,282.0,18.15,13.29,47.59359,-54.27349
2021-12-04 19:54:01+00:00,277.0,12.35,274.0,17.64,13.29,47.59359,-54.27349
2021-12-04 20:04:01+00:00,284.0,11.15,272.0,12.87,13.29,47.59359,-54.27349
2021-12-04 20:14:01+00:00,276.0,15.1,281.0,18.47,12.73,47.59359,-54.27349
2021-12-04 20:24:01+00:00,285.0,11.48,278.0,14.1,12.73,47.59359,-54.27349
2021-12-04 20:34:01+00:00,278.0,11.01,280.0,12.01,12.73,47.59359,-54.27349
2021-12-04 20:44:01+00:00,304.0,11.88,311.0,14.41,12.73,47.59359,-54.27349
2021-12-04 20:54:01+00:00,309.0,12.56,301.0,17.16,12.73,47.59359,-54.27349
2021-12-04 21:04:01+00:00,307.0,10.83,317.0,12.57,12.73,47.59359,-54.27349
2021-12-04 21:14:01+00:00,305.0,11.37,305.0,13.33,12.65,47.59359,-54.27349
2021-12-04 21:24:01+00:00,292.0,11.69,290.0,13.09,12.65,47.59359,-54.27349
2021-12-04 21:34:01+00:00,291.0,11.51,285.0,13.48,12.65,47.59359,-54.27349
2021-12-04 21:44:01+00:00,286.0,10.76,296.0,12.08,12.65,47.59359,-54.27349
2021-12-04 21:54:01+00:00,293.0,10.87,292.0,12.78,12.65,47.59359,-54.27349
2021-12-04 22:04:01+00:00,295.0,10.42,295.0,11.87,12.65,47.59359,-54.27349
2021-12-04 22:14:01+00:00,284.0,9.34,280.0,11.13,12.57,47.59359,-54.27349
2021-12-04 22:24:01+00:00,288.0,8.84,282.0,10.75,12.57,47.59359,-54.27349
2021-12-04 22:34:01+00:00,277.0,9.79,276.0,10.92,12.57,47.59359,-54.27349
2021-12-04 22:44:01+00:00,283.0,10.58,282.0,12.07,12.57,47.59359,-54.27349
2021-12-04 22:54:01+00:00,271.0,9.7,269.0,11.06,12.57,47.59359,-54.27349
2021-12-04 23:04:01+00:00,272.0,9.66,282.0,10.77,12.57,47.59359,-54.27349
2021-12-04 23:14:01+00:00,272.0,10.55,282.0,11.94,12.57,47.59359,-54.27349
2021-12-04 23:24:01+00:00,266.0,12.07,272.0,17.45,12.57,47.59359,-54.27349
2021-12-04 23:34:01+00:00,269.0,12.41,275.0,17.09,12.57,47.59359,-54.27349
2021-12-04 23:44:01+00:00,283.0,12.52,279.0,17.24,12.57,47.59359,-54.27349
2021-12-04 23:54:01+00:00,278.0,8.82,280.0,10.83,12.57,47.59359,-54.27349
